This is the latest recevied weather packets stored in our database for station/object DL9GRB-13. If no packets are shown the sender has not sent any weather packets the latest 1 day(s).
| Time | Temp. | Humidity | Pressure | Rain* | Wind** | Luminosity | Snow |
|---|---|---|---|---|---|---|---|
| 1778010548 | 9.44° C | 84% | 1009.2 hPa | 0 mm | 2.68 m/s, 70° | 0 W/m² | - |
| 1778010368 | 9.44° C | 84% | 1009.2 hPa | 0 mm | 4.47 m/s, 12° | 0 W/m² | - |
| 1778010188 | 9.44° C | 84% | 1009.2 hPa | 0 mm | 2.68 m/s, 17° | 0 W/m² | - |
| 1778010008 | 9.44° C | 84% | 1009.1 hPa | 0 mm | 4.47 m/s, 278° | 0 W/m² | - |
| 1778009828 | 9.44° C | 83% | 1009.3 hPa | 0 mm | 4.02 m/s, 41° | 0 W/m² | - |
| 1778009648 | 9.44° C | 83% | 1009.3 hPa | 0 mm | 2.68 m/s, 11° | 0 W/m² | - |
| 1778009468 | 9.44° C | 82% | 1009.2 hPa | 0 mm | 4.47 m/s, 15° | 0 W/m² | - |
| 1778009288 | 9.44° C | 81% | 1009.2 hPa | 0 mm | 2.24 m/s, 81° | 0 W/m² | - |
| 1778009108 | 9.44° C | 81% | 1009.3 hPa | 0 mm | 2.24 m/s, 55° | 0 W/m² | - |
| 1778008928 | 9.44° C | 80% | 1009.3 hPa | 0 mm | 0 m/s | 0 W/m² | - |
| 1778008748 | 10° C | 79% | 1009.5 hPa | 0 mm | 4.47 m/s, 349° | 0 W/m² | - |
| 1778008568 | 10° C | 79% | 1009.3 hPa | 0 mm | 0 m/s | 0 W/m² | - |
| 1778008388 | 10° C | 78% | 1009.3 hPa | 0 mm | 0 m/s | 0 W/m² | - |
| 1778008208 | 10° C | 78% | 1009.1 hPa | 0 mm | 2.68 m/s, 39° | 0 W/m² | - |
| 1778008028 | 10° C | 77% | 1009.2 hPa | 0 mm | 2.24 m/s, 86° | 1 W/m² | - |
| 1778007848 | 10° C | 76% | 1009 hPa | 0 mm | 4.02 m/s, 14° | 1 W/m² | - |
| 1778007668 | 10.56° C | 75% | 1009.1 hPa | 0 mm | 0 m/s | 2 W/m² | - |
| 1778007488 | 10.56° C | 74% | 1009.3 hPa | 0 mm | 1.79 m/s, 34° | 2 W/m² | - |
| 1778007308 | 10.56° C | 73% | 1009.2 hPa | 0 mm | 2.24 m/s, 5° | 3 W/m² | - |
| 1778007128 | 10.56° C | 72% | 1008.9 hPa | 0 mm | 2.68 m/s, 49° | 4 W/m² | - |
| 1778006948 | 10.56° C | 71% | 1009.3 hPa | 0 mm | 4.47 m/s, 61° | 4 W/m² | - |
| 1778006768 | 11.11° C | 70% | 1009.1 hPa | 0 mm | 1.79 m/s, 75° | 6 W/m² | - |
| 1778006588 | 11.11° C | 70% | 1009 hPa | 0 mm | 2.24 m/s, 91° | 7 W/m² | - |
| 1778006408 | 11.11° C | 69% | 1008.9 hPa | 0 mm | 2.68 m/s, 117° | 8 W/m² | - |
| 1778006228 | 11.67° C | 68% | 1009 hPa | 0 mm | 2.24 m/s, 118° | 10 W/m² | - |
* Rain latest hour (hover to see other rain measurements)
** Current wind speed in m/s (hover to see current wind gust speed)